Regional Weather Roundup
Issued by NWS

Home | Current Version | Previous Version | Graphics & Text | Print | Product List | Glossary On
Versions: 1 2 3 4 5 6 7 8 9 10 11 12 13 14 15 16 17 18 19 20 21 22 23 24 25 26 27 28 29 30 31 32 33 34 35 36 37 38 39 40 41 42 43 44 45 46 47 48 49 50
000
ASUS43 KIND 300909
RWRIN

WEATHER ROUNDUP FOR INDIANA
NATIONAL WEATHER SERVICE INDIANAPOLIS IN
500 AM EDT SAT APR 30 2016

NOTE: "FAIR" INDICATES FEW OR NO CLOUDS BELOW 12,000 FEET WITH NO
SIGNIFICANT WEATHER AND/OR OBSTRUCTIONS TO VISIBILITY.

* - STATION DOES NOT REPORT WEATHER SUCH AS PRECIPITATION OR FOG.

+ - STATION NOT QUALITY CONTROLLED BY THE NATIONAL WEATHER SERVICE.
    USE DATA WITH CAUTION...ESPECIALLY DEWPOINT AND RELATIVE
    HUMIDITY OBSERVATIONS.

INZ001>003-010>013-019-020-301000-
NORTHWEST INDIANA

CITY           SKY/WX    TMP DP  RH WIND       PRES   REMARKS
GARY /AIRPORT/ CLOUDY    49  49 100 NE9       30.07R
KNOX *+        PTCLDY    43  41  93 E5        30.07R
LA PORTE +     PTCLDY    46  46 100 E7        30.08R FOG
MICHIGAN CITY+ PTCLDY    45  45 100 E3        30.09R
MONTICELLO +   CLOUDY    49  44  84 E7        30.02R
RENSSELAER +   CLOUDY    46  45  93 NE9       30.04R FOG
VALPARAISO     CLOUDY    45  43  93 E9        30.07R FOG

$$

LMZ046-743>745-301000-
SOUTHERN LAKE MICHIGAN

STATION/POSITION TIME  TEMP    WIND        PRES    WAVE
                       AIR SEA DIR/SP/G            HT
                 (UTC) (F)     (DEG/KT/KT) (MB)    (FT)
BURNS HARBOR     0802   47      80/ 11/ 13 1018.3S
MICHIGAN CITY    0800   46      60/  8/ 10   N/A

$$

INZ004-005-014>016-021>024-301000-
NORTH CENTRAL INDIANA

CITY           SKY/WX    TMP DP  RH WIND       PRES   REMARKS
GOSHEN         CLOUDY    44  40  85 E9        30.08S FOG
LOGANSPORT +   CLOUDY    46  45  93 E10       30.04S
PERU/GRISSOM   CLOUDY    48  45  88 E13       30.02S
ROCHESTER +    PTCLDY    46  45  93 E9        30.07R
SOUTH BEND     CLOUDY    45  41  86 E7        30.09R FOG
WARSAW +       CLOUDY    43  39  87 E8        30.07S

$$

INZ006>009-017-018-025>027-301000-
NORTHEAST INDIANA

CITY           SKY/WX    TMP DP  RH WIND       PRES   REMARKS
ANGOLA *+      CLEAR     43  28  56 E7        30.10R
AUBURN +       CLEAR     41  37  87 E8        30.09F FOG
FORT WAYNE     PTCLDY    42  39  89 E8        30.09S
HUNTINGTON +   PTCLDY   N/A N/A N/A E6        30.07R

$$

INZ028-029-035-036-043>045-051>053-301000-
WEST CENTRAL INDIANA

CITY           SKY/WX    TMP DP  RH WIND       PRES   REMARKS
CRAWFORDSVL +  CLOUDY    50  47  92 E10       30.00S
GREENCASTLE +  CLOUDY    52  50  93 E13       30.00R
LAFAYETTE      CLOUDY    50  45  83 E13       30.01S
TERRE HAUTE    LGT RAIN  54  50  86 E12       29.96F

$$

INZ030>032-037>040-046>048-054>057-064-065-301000-
CENTRAL INDIANA

CITY           SKY/WX    TMP DP  RH WIND       PRES   REMARKS
CP ATTERBURY + CLOUDY    54  48  82 E7        30.01S
FISHERS *+     MOCLDY    50  48  93 E7        30.04R
FRANKFORT +      N/A     50  42  72 E15       30.03R
GREENWOOD *+   CLOUDY    52  48  87 E6        30.03R
INDIANAPOLIS   CLOUDY    52  46  80 E15       30.00R
-EAGLE CREEK   CLOUDY    52  46  80 E14       30.02R
KOKOMO *+      CLOUDY    48  43  81 E12       30.03S
MARION +       CLOUDY    47  43  85 E10       30.05R
SHELBYVILLE    MOCLDY    54  48  80 E12       30.01R
ZIONSVILLE +   CLOUDY    49  46  87 E10       30.03R

$$

INZ033-034-041-042-049-050-058-059-301000-
EAST CENTRAL INDIANA

CITY           SKY/WX    TMP DP  RH WIND       PRES   REMARKS
MUNCIE         CLOUDY    50  43  77 E10       30.05R

$$

INZ060-061-067>069-081>083-085>088-301000-
SOUTHWEST INDIANA

CITY           SKY/WX    TMP DP  RH WIND       PRES   REMARKS
EVANSVILLE     CLOUDY    61  53  75 E5        29.93R
HUNTINGBURG *+ CLOUDY    61  52  72 E10       29.94R
WASHINGTON +   CLOUDY    59  54  85 E9        29.93F

$$

INZ062-063-066-070>080-084-089>092-301000-
SOUTH CENTRAL AND SOUTHEAST INDIANA

CITY           SKY/WX    TMP DP  RH WIND       PRES   REMARKS
BEDFORD +      LGT RAIN  57  57 100 E8        29.96R
BLOOMINGTON    LGT RAIN  56  50  80 E8        29.97S
MADISON *+     CLOUDY    55  50  82 E8        30.00F
NORTH VERNON + CLOUDY    57  54  88 E3        29.99F
SEYMOUR +      DRIZZLE   59  52  77 E9        29.98F

$$





USA.gov is the U.S. government's official web portal to all federal, state and local government web resources and services.